Location: Staunton
(38.1490°N, 79.0720°W)
Time: 23:08:12
(UTC-05:00)

ISS - Pass Details

Date: 31 January 2021
Orbit: 417 x 422 km, 51.6° (Epoch: 07 March)

Event Time Altitude Azimuth Distance (km) Brightness Sun altitude
Rises 19:53:33 0° 315° (NW) 2,374 0.7 -26.7°
Reaches altitude 10° 19:55:46 10° 324° (NW) 1,507 -0.6 -27.2°
Enters shadow 19:55:55 11° 326° (NW) 1,449 -0.7 -27.2°
